Marshall, MI

5:53 PM EDT on September 19, 2019 (GMT -0400)
Brooks

Weather History for KRMY - August, 2019

Change the Weather History Date:

Thursday, August 22, 2019

  Actual Average (KBTL) Record (KBTL)
Temperature  
Mean Temperature 70 °F -  
Max Temperature 78 °F 77 °F 88 °F (2007)
Min Temperature 62 °F 59 °F 48 °F (2004)
Cooling Degree Days 5    
Growing Degree Days 20 (Base 50)    
Moisture  
Dew Point 55 °F    
Average Humidity 61    
Maximum Humidity 78    
Minimum Humidity 39    
Precipitation  
Precipitation 0.00 in - - ()
Sea Level Pressure  
Sea Level Pressure 30.01 in    
Wind  
Wind Speed 1 mph ()    
Max Wind Speed 7 mph    
Max Gust Speed -    
Visibility 10.0 miles    
Events      
Averages and records for this station are not official NWS values.
T = Trace of Precipitation, MM = Missing Value Source: Averaged Metar Reports

Daily Weather History Graph

Daily Weather History Graph

Search for Another Location

Airport or City:

Astronomy

Aug. 22, 2019 Rise Set
Actual Time 6:54 AM EDT 8:30 PM EDT
Civil Twilight 6:24 AM EDT 8:59 PM EDT
Nautical Twilight 5:48 AM EDT 9:35 PM EDT
Astronomical Twilight 5:10 AM EDT 10:13 PM EDT
Moon No Moon Rise 1:36 PM EDT (8/22)
Length of Visible Light 14h 35m
Length of Day
13h 35m
Waning Gibbous, 60% of the Moon is Illuminated
Aug 22
Waning Gibbous
Aug 23
Last Quarter
Aug 30
New
Sep 5
First Quarter
Sep 14
Full

Hourly Weather History & Observations

Time (EDT) Temp. Dew Point Humidity Pressure Visibility Wind Dir Wind Speed Gust Speed Precip Events Conditions
12:00 AM 71.1 °F 60.4 °F 69% 29.97 in 10.0 mi NNW 3.5 mph - N/A   Clear
12:18 AM 70.5 °F 59.2 °F 67% 29.97 in 10.0 mi Calm Calm - N/A   Clear
12:36 AM 70.0 °F 58.1 °F 66% 29.97 in 10.0 mi Calm Calm - N/A   Scattered Clouds
12:55 AM 69.1 °F 58.5 °F 69% 29.97 in 10.0 mi Calm Calm - N/A   Clear
12:56 AM 69.1 °F 58.5 °F 69% 29.97 in 10.0 mi Calm Calm - N/A   Clear
1:15 AM 67.5 °F 59.5 °F 76% 29.97 in 10.0 mi Calm Calm - N/A   Clear
1:16 AM 67.6 °F 59.5 °F 75% 29.96 in 10.0 mi Calm Calm - N/A   Clear
1:39 AM 68.0 °F 59.9 °F 75% 29.97 in 10.0 mi Calm Calm - N/A   Clear
1:58 AM 68.0 °F 59.4 °F 74% 29.97 in 10.0 mi Calm Calm - N/A   Clear
2:16 AM 67.8 °F 58.8 °F 73% 29.97 in 10.0 mi Calm Calm - N/A   Clear
2:35 AM 67.1 °F 59.0 °F 75% 29.97 in 10.0 mi Calm Calm - N/A   Clear
2:55 AM 67.5 °F 58.3 °F 72% 29.97 in 10.0 mi Calm Calm - N/A   Clear
2:56 AM 67.5 °F 58.3 °F 72% 29.97 in 10.0 mi Calm Calm - N/A   Clear
3:37 AM 66.2 °F 59.0 °F 78% 29.98 in 10.0 mi Calm Calm - N/A   Clear
4:17 AM 66.2 °F 57.2 °F 73% 29.98 in 10.0 mi Calm Calm - N/A   Clear
4:57 AM 66.2 °F 57.2 °F 73% 29.97 in 10.0 mi Calm Calm - N/A   Scattered Clouds
5:37 AM 66.2 °F 57.2 °F 73% 29.97 in 10.0 mi Calm Calm - N/A   Clear
6:17 AM 64.4 °F 57.2 °F 77% 29.98 in 10.0 mi Calm Calm - N/A   Overcast
6:57 AM 64.4 °F 57.2 °F 77% 30.00 in 10.0 mi Calm Calm - N/A   Clear
7:37 AM 64.4 °F 57.2 °F 77% 30.01 in 10.0 mi Calm Calm - N/A   Clear
8:17 AM 64.4 °F 57.2 °F 77% 30.02 in 10.0 mi Calm Calm - N/A   Mostly Cloudy
8:57 AM 64.4 °F 57.2 °F 77% 30.03 in 10.0 mi NNE 4.6 mph - N/A   Clear
9:37 AM 68.0 °F 55.4 °F 64% 30.03 in 10.0 mi ENE 4.6 mph - N/A   Clear
10:17 AM 69.8 °F 55.4 °F 60% 30.03 in 10.0 mi ENE 6.9 mph - N/A   Clear
10:57 AM 69.8 °F 53.6 °F 56% 30.03 in 10.0 mi ENE 3.5 mph - N/A   Clear
11:37 AM 71.6 °F 53.6 °F 53% 30.04 in 10.0 mi SE 5.8 mph - N/A   Clear
12:17 PM 73.4 °F 53.6 °F 50% 30.03 in 10.0 mi NE 4.6 mph - N/A   Clear
12:57 PM 75.2 °F 53.6 °F 47% 30.03 in 10.0 mi Calm Calm - N/A   Clear
1:37 PM 75.2 °F 51.8 °F 44% 30.03 in 10.0 mi NE 4.6 mph - N/A   Scattered Clouds
2:17 PM 77.0 °F 51.8 °F 41% 30.03 in 10.0 mi NNE 4.6 mph - N/A   Scattered Clouds
2:57 PM 77.0 °F 50.0 °F 39% 30.03 in 10.0 mi Calm Calm - N/A   Mostly Cloudy
3:37 PM 78.8 °F 51.8 °F 39% 30.03 in 10.0 mi North 3.5 mph - N/A   Scattered Clouds
4:17 PM 77.0 °F 51.8 °F 41% 30.02 in 10.0 mi North 5.8 mph - N/A   Mostly Cloudy
4:57 PM 77.0 °F 50.0 °F 39% 30.01 in 10.0 mi NW 5.8 mph - N/A   Scattered Clouds
5:37 PM 77.0 °F 50.0 °F 39% 30.02 in 10.0 mi North 3.5 mph - N/A   Scattered Clouds
6:17 PM 73.4 °F 48.2 °F 41% 30.02 in 10.0 mi NNW 3.5 mph - N/A   Scattered Clouds
6:57 PM 73.4 °F 48.2 °F 41% 30.02 in 10.0 mi NNW 4.6 mph - N/A   Scattered Clouds
7:37 PM 71.6 °F 48.2 °F 43% 30.03 in 10.0 mi North 4.6 mph - N/A   Scattered Clouds
8:17 PM 69.8 °F 50.0 °F 49% 30.03 in 10.0 mi Calm Calm - N/A   Clear
8:57 PM 68.0 °F 50.0 °F 52% 30.05 in 10.0 mi Calm Calm - N/A   Clear
9:37 PM 64.4 °F 50.0 °F 59% 30.06 in 10.0 mi Calm Calm - N/A   Clear
10:17 PM 64.4 °F 50.0 °F 59% 30.07 in 10.0 mi Calm Calm - N/A   Clear
10:57 PM 62.6 °F 50.0 °F 63% 30.07 in 10.0 mi Calm Calm - N/A   Clear
11:37 PM 62.6 °F 50.0 °F 63% 30.08 in 10.0 mi Calm Calm - N/A   Clear